sat.trackr.live / text

‹ back to catalog

STARLINK-3837

NORAD 52358 · 2022-045AD

PAYLOAD ACTIVE UNKNOWN

§ Identity

Operator
Country
US
Launch date
2022-04-29
Launch site
AFETR
Launch vehicle
Mass (kg)
RCS (m²)

Purposes: comms

External: N2YO · Heavens-Above · Gunter

§ Orbital elements

Epoch: 2026-09-20T01:43:37.642080Z

Period
93.85 min
Inclination
53.1583°
Eccentricity
0.0001103
Mean motion
15.34388136 rev/d
Perigee alt
462.0 km
Apogee alt
463.5 km
Semi-major
6,840.9 km
B*
6.6026e-5
RAAN
37.3746°
Arg perigee
74.3551°
Mean anomaly
285.7573°
Rev number
24,525

§ Raw data

STARLINK-38371 52358U 22045AD  26263.07196345  .00001854  00000+0  66026-4 0  99912 52358  53.1583  37.3746 0001103  74.3551 285.7573 15.34388136245257

JSON: /api/v1/satellites/52358 · /tle

For live sub-satellite position, see the globe view (requires WebGL).

§ Visibility from observer

Set your observer location to see the next 7 days of passes ≥ 10°. The values pass through the URL so the page stays shareable.

No JS? Fill the form by hand. The geolocation button needs JavaScript.